Year,Month,Day,Hour,Minute,Value (Times are PST for temperature in C)
2012,06,09,00,00,6.80
2012,06,09,00,01,6.80
2012,06,09,00,02,6.80
2012,06,09,00,03,6.80
2012,06,09,00,04,6.80
2012,06,09,00,05,6.80
2012,06,09,00,06,6.80
2012,06,09,00,07,6.80
2012,06,09,00,08,6.80
2012,06,09,00,09,6.80
2012,06,09,00,10,6.80
2012,06,09,00,11,6.80
2012,06,09,00,12,6.80
2012,06,09,00,13,6.70
2012,06,09,00,14,6.70
2012,06,09,00,15,6.70
2012,06,09,00,16,6.70
2012,06,09,00,17,6.70
2012,06,09,00,18,6.70
2012,06,09,00,19,6.70
2012,06,09,00,20,6.70
2012,06,09,00,21,6.70
2012,06,09,00,22,6.60
2012,06,09,00,23,6.60
2012,06,09,00,24,6.60
2012,06,09,00,25,6.60
2012,06,09,00,26,6.60
2012,06,09,00,27,6.60
2012,06,09,00,28,6.60
2012,06,09,00,29,6.60
2012,06,09,00,30,6.60
2012,06,09,00,31,6.60
2012,06,09,00,32,6.60
2012,06,09,00,33,6.60
2012,06,09,00,34,6.60
2012,06,09,00,35,6.60
2012,06,09,00,36,6.60
2012,06,09,00,37,6.60
2012,06,09,00,38,6.60
2012,06,09,00,39,6.60
2012,06,09,00,40,6.60
2012,06,09,00,41,6.60
2012,06,09,00,42,6.60
2012,06,09,00,43,6.60
2012,06,09,00,44,6.60
2012,06,09,00,45,6.60
2012,06,09,00,46,6.60
2012,06,09,00,47,6.60
2012,06,09,00,48,6.70
2012,06,09,00,49,6.70
2012,06,09,00,50,6.70
2012,06,09,00,51,6.70
2012,06,09,00,52,6.70
2012,06,09,00,53,6.70
2012,06,09,00,54,6.70
2012,06,09,00,55,6.80
2012,06,09,00,56,6.80
2012,06,09,00,57,6.80
2012,06,09,00,58,6.80
2012,06,09,00,59,6.80
2012,06,09,01,00,6.70
2012,06,09,01,01,6.70
2012,06,09,01,02,6.70
2012,06,09,01,03,6.70
2012,06,09,01,04,6.70
2012,06,09,01,05,6.70
2012,06,09,01,06,6.70
2012,06,09,01,07,6.70
2012,06,09,01,08,6.70
2012,06,09,01,09,6.70
2012,06,09,01,10,6.70
2012,06,09,01,11,6.70
2012,06,09,01,12,6.70
2012,06,09,01,13,6.70
2012,06,09,01,14,6.70
2012,06,09,01,15,6.60
2012,06,09,01,16,6.60
2012,06,09,01,17,6.60
2012,06,09,01,18,6.60
2012,06,09,01,19,6.60
2012,06,09,01,20,6.50
2012,06,09,01,21,6.50
2012,06,09,01,22,6.50
2012,06,09,01,23,6.50
2012,06,09,01,24,6.50
2012,06,09,01,25,6.40
2012,06,09,01,26,6.40
2012,06,09,01,27,6.50
2012,06,09,01,28,6.50
2012,06,09,01,29,6.50
2012,06,09,01,30,6.60
2012,06,09,01,31,6.60
2012,06,09,01,32,6.70
2012,06,09,01,33,6.70
2012,06,09,01,34,6.70
2012,06,09,01,35,6.70
2012,06,09,01,36,6.70
2012,06,09,01,37,6.70
2012,06,09,01,38,6.70
2012,06,09,01,39,6.70
2012,06,09,01,40,6.70
2012,06,09,01,41,6.70
2012,06,09,01,42,6.70
2012,06,09,01,43,6.70
2012,06,09,01,44,6.70
2012,06,09,01,45,6.70
2012,06,09,01,46,6.70
2012,06,09,01,47,6.70
2012,06,09,01,48,6.70
2012,06,09,01,49,6.70
2012,06,09,01,50,6.70
2012,06,09,01,51,6.70
2012,06,09,01,52,6.70
2012,06,09,01,53,6.70
2012,06,09,01,54,6.70
2012,06,09,01,55,6.70
2012,06,09,01,56,6.70
2012,06,09,01,57,6.70
2012,06,09,01,58,6.70
2012,06,09,01,59,6.70
2012,06,09,02,00,6.70
2012,06,09,02,01,6.70
2012,06,09,02,02,6.70
2012,06,09,02,03,6.70
2012,06,09,02,04,6.70
2012,06,09,02,05,6.70
2012,06,09,02,06,6.70
2012,06,09,02,07,6.80
2012,06,09,02,08,6.80
2012,06,09,02,09,6.80
2012,06,09,02,10,6.80
2012,06,09,02,11,6.90
2012,06,09,02,12,6.90
2012,06,09,02,13,7.00
2012,06,09,02,14,7.10
2012,06,09,02,15,7.20
2012,06,09,02,16,7.40
2012,06,09,02,17,7.60
2012,06,09,02,18,7.80
2012,06,09,02,19,8.00
2012,06,09,02,20,8.30
2012,06,09,02,21,8.60
2012,06,09,02,22,8.80
2012,06,09,02,23,8.90
2012,06,09,02,24,9.10
2012,06,09,02,25,9.20
2012,06,09,02,26,9.30
2012,06,09,02,27,9.40
2012,06,09,02,28,9.50
2012,06,09,02,29,9.60
2012,06,09,02,30,9.70
2012,06,09,02,31,9.70
2012,06,09,02,32,9.70
2012,06,09,02,33,9.80
2012,06,09,02,34,9.90
2012,06,09,02,35,9.90
2012,06,09,02,36,9.90
2012,06,09,02,37,10.00
2012,06,09,02,38,10.00
2012,06,09,02,39,10.00
2012,06,09,02,40,10.00
2012,06,09,02,41,10.10
2012,06,09,02,42,10.10
2012,06,09,02,43,10.10
2012,06,09,02,44,10.10
2012,06,09,02,45,10.10
2012,06,09,02,46,10.10
2012,06,09,02,47,10.10
2012,06,09,02,48,10.00
2012,06,09,02,49,10.00
2012,06,09,02,50,9.90
2012,06,09,02,51,9.90
2012,06,09,02,52,9.80
2012,06,09,02,53,9.80
2012,06,09,02,54,9.80
2012,06,09,02,55,9.70
2012,06,09,02,56,9.70
2012,06,09,02,57,9.70
2012,06,09,02,58,9.60
2012,06,09,02,59,9.60
2012,06,09,03,00,9.60
2012,06,09,03,01,9.60
2012,06,09,03,02,9.50
2012,06,09,03,03,9.50
2012,06,09,03,04,9.50
2012,06,09,03,05,9.50
2012,06,09,03,06,9.50
2012,06,09,03,07,9.60
2012,06,09,03,08,9.60
2012,06,09,03,09,9.60
2012,06,09,03,10,9.70
2012,06,09,03,11,9.70
2012,06,09,03,12,9.70
2012,06,09,03,13,9.70
2012,06,09,03,14,9.80
2012,06,09,03,15,9.80
2012,06,09,03,16,9.80
2012,06,09,03,17,9.80
2012,06,09,03,18,9.80
2012,06,09,03,19,9.80
2012,06,09,03,20,9.70
2012,06,09,03,21,9.70
2012,06,09,03,22,9.70
2012,06,09,03,23,9.70
2012,06,09,03,24,9.70
2012,06,09,03,25,9.70
2012,06,09,03,26,9.80
2012,06,09,03,27,9.80
2012,06,09,03,28,9.80
2012,06,09,03,29,9.80
2012,06,09,03,30,9.80
2012,06,09,03,31,9.80
2012,06,09,03,32,9.80
2012,06,09,03,33,9.80
2012,06,09,03,34,9.90
2012,06,09,03,35,9.90
2012,06,09,03,36,9.90
2012,06,09,03,37,10.00
2012,06,09,03,38,10.00
2012,06,09,03,39,10.00
2012,06,09,03,40,10.10
2012,06,09,03,41,10.10
2012,06,09,03,42,10.10
2012,06,09,03,43,10.10
2012,06,09,03,44,10.20
2012,06,09,03,45,10.20
2012,06,09,03,46,10.20
2012,06,09,03,47,10.20
2012,06,09,03,48,10.30
2012,06,09,03,49,10.20
2012,06,09,03,50,10.20
2012,06,09,03,51,10.20
2012,06,09,03,52,10.30
2012,06,09,03,53,10.30
2012,06,09,03,54,10.30
2012,06,09,03,55,10.30
2012,06,09,03,56,10.20
2012,06,09,03,57,10.20
2012,06,09,03,58,10.20
2012,06,09,03,59,10.20
2012,06,09,04,00,10.20
2012,06,09,04,01,10.20
2012,06,09,04,02,10.20
2012,06,09,04,03,10.20
2012,06,09,04,04,10.20
2012,06,09,04,05,10.20
2012,06,09,04,06,10.20
2012,06,09,04,07,10.10
2012,06,09,04,08,10.10
2012,06,09,04,09,10.10
2012,06,09,04,10,10.10
2012,06,09,04,11,10.10
2012,06,09,04,12,10.10
2012,06,09,04,13,10.00
2012,06,09,04,14,10.10
2012,06,09,04,15,10.00
2012,06,09,04,16,10.00
2012,06,09,04,17,10.00
2012,06,09,04,18,10.00
2012,06,09,04,19,10.00
2012,06,09,04,20,9.90
2012,06,09,04,21,9.90
2012,06,09,04,22,9.90
2012,06,09,04,23,9.90
2012,06,09,04,24,9.90
2012,06,09,04,25,9.80
2012,06,09,04,26,9.80
2012,06,09,04,27,9.80
2012,06,09,04,28,9.80
2012,06,09,04,29,9.80
2012,06,09,04,30,9.80
2012,06,09,04,31,9.80
2012,06,09,04,32,9.70
2012,06,09,04,33,9.70
2012,06,09,04,34,9.70
2012,06,09,04,35,9.70
2012,06,09,04,36,9.60
2012,06,09,04,37,9.60
2012,06,09,04,38,9.60
2012,06,09,04,39,9.50
2012,06,09,04,40,9.50
2012,06,09,04,41,9.50
2012,06,09,04,42,9.50
2012,06,09,04,43,9.40
2012,06,09,04,44,9.40
2012,06,09,04,45,9.40
2012,06,09,04,46,9.30
2012,06,09,04,47,9.30
2012,06,09,04,48,9.30
2012,06,09,04,49,9.30
2012,06,09,04,50,9.20
2012,06,09,04,51,9.20
2012,06,09,04,52,9.20
2012,06,09,04,53,9.10
2012,06,09,04,54,9.10
2012,06,09,04,55,9.10
2012,06,09,04,56,9.10
2012,06,09,04,57,9.10
2012,06,09,04,58,9.10
2012,06,09,04,59,9.10
2012,06,09,05,00,9.00
2012,06,09,05,01,9.00
2012,06,09,05,02,9.00
2012,06,09,05,03,9.10
2012,06,09,05,04,9.10
2012,06,09,05,05,9.10
2012,06,09,05,06,9.10
2012,06,09,05,07,9.10
2012,06,09,05,08,9.10
2012,06,09,05,09,9.10
2012,06,09,05,10,9.10
2012,06,09,05,11,9.10
2012,06,09,05,12,9.10
2012,06,09,05,13,9.10
2012,06,09,05,14,9.00
2012,06,09,05,15,9.10
2012,06,09,05,16,9.10
2012,06,09,05,17,9.10
2012,06,09,05,18,9.10
2012,06,09,05,19,9.10
2012,06,09,05,20,9.10
2012,06,09,05,21,9.10
2012,06,09,05,22,9.10
2012,06,09,05,23,9.10
2012,06,09,05,24,9.10
2012,06,09,05,25,9.10
2012,06,09,05,26,9.10
2012,06,09,05,27,9.10
2012,06,09,05,28,9.20
2012,06,09,05,29,9.20
2012,06,09,05,30,9.10
2012,06,09,05,31,9.10
2012,06,09,05,32,9.20
2012,06,09,05,33,9.20
2012,06,09,05,34,9.20
2012,06,09,05,35,9.20
2012,06,09,05,36,9.20
2012,06,09,05,37,9.20
2012,06,09,05,38,9.20
2012,06,09,05,39,9.20
2012,06,09,05,40,9.20
2012,06,09,05,41,9.20
2012,06,09,05,42,9.20
2012,06,09,05,43,9.10
2012,06,09,05,44,9.20
2012,06,09,05,45,9.20
2012,06,09,05,46,9.20
2012,06,09,05,47,9.20
2012,06,09,05,48,9.20
2012,06,09,05,49,9.20
2012,06,09,05,50,9.20
2012,06,09,05,51,9.20
2012,06,09,05,52,9.20
2012,06,09,05,53,9.20
2012,06,09,05,54,9.20
2012,06,09,05,55,9.30
2012,06,09,05,56,9.30
2012,06,09,05,57,9.30
2012,06,09,05,58,9.30
2012,06,09,05,59,9.30
2012,06,09,06,00,9.30
2012,06,09,06,01,9.40
2012,06,09,06,02,9.40
2012,06,09,06,03,9.40
2012,06,09,06,04,9.40
2012,06,09,06,05,9.40
2012,06,09,06,06,9.40
2012,06,09,06,07,9.50
2012,06,09,06,08,9.60
2012,06,09,06,09,9.60
2012,06,09,06,10,9.70
2012,06,09,06,11,9.70
2012,06,09,06,12,9.80
2012,06,09,06,13,9.80
2012,06,09,06,14,9.80
2012,06,09,06,15,9.90
2012,06,09,06,16,9.90
2012,06,09,06,17,9.90
2012,06,09,06,18,10.00
2012,06,09,06,19,10.00
2012,06,09,06,20,10.10
2012,06,09,06,21,10.10
2012,06,09,06,22,10.20
2012,06,09,06,23,10.20
2012,06,09,06,24,10.20
2012,06,09,06,25,10.20
2012,06,09,06,26,10.20
2012,06,09,06,27,10.30
2012,06,09,06,28,10.30
2012,06,09,06,29,10.30
2012,06,09,06,30,10.40
2012,06,09,06,31,10.40
2012,06,09,06,32,10.40
2012,06,09,06,33,10.40
2012,06,09,06,34,10.50
2012,06,09,06,35,10.50
2012,06,09,06,36,10.50
2012,06,09,06,37,10.60
2012,06,09,06,38,10.60
2012,06,09,06,39,10.60
2012,06,09,06,40,10.60
2012,06,09,06,41,10.60
2012,06,09,06,42,10.70
2012,06,09,06,43,10.70
2012,06,09,06,44,10.70
2012,06,09,06,45,10.80
2012,06,09,06,46,10.80
2012,06,09,06,47,10.80
2012,06,09,06,48,10.80
2012,06,09,06,49,10.90
2012,06,09,06,50,10.90
2012,06,09,06,51,10.90
2012,06,09,06,52,10.90
2012,06,09,06,53,10.90
2012,06,09,06,54,10.90
2012,06,09,06,55,11.00
2012,06,09,06,56,11.00
2012,06,09,06,57,11.00
2012,06,09,06,58,11.00
2012,06,09,06,59,11.00
2012,06,09,07,00,11.00
2012,06,09,07,01,11.00
2012,06,09,07,02,11.00
2012,06,09,07,03,11.00
2012,06,09,07,04,11.00
2012,06,09,07,05,11.00
2012,06,09,07,06,11.10
2012,06,09,07,07,11.10
2012,06,09,07,08,11.10
2012,06,09,07,09,11.10
2012,06,09,07,10,11.10
2012,06,09,07,11,11.10
2012,06,09,07,12,11.10
2012,06,09,07,13,11.10
2012,06,09,07,14,11.10
2012,06,09,07,15,11.10
2012,06,09,07,16,11.20
2012,06,09,07,17,11.20
2012,06,09,07,18,11.20
2012,06,09,07,19,11.20
2012,06,09,07,20,11.30
2012,06,09,07,21,11.30
2012,06,09,07,22,11.30
2012,06,09,07,23,11.30
2012,06,09,07,24,11.30
2012,06,09,07,25,11.40
2012,06,09,07,26,11.40
2012,06,09,07,27,11.40
2012,06,09,07,28,11.40
2012,06,09,07,29,11.40
2012,06,09,07,30,11.40
2012,06,09,07,31,11.40
2012,06,09,07,32,11.40
2012,06,09,07,33,11.40
2012,06,09,07,34,11.40
2012,06,09,07,35,11.40
2012,06,09,07,36,11.50
2012,06,09,07,37,11.50
2012,06,09,07,38,11.50
2012,06,09,07,39,11.60
2012,06,09,07,40,11.60
2012,06,09,07,41,11.60
2012,06,09,07,42,11.60
2012,06,09,07,43,11.60
2012,06,09,07,44,11.70
2012,06,09,07,45,11.70
2012,06,09,07,46,11.70
2012,06,09,07,47,11.70
2012,06,09,07,48,11.70
2012,06,09,07,49,11.70
2012,06,09,07,50,11.70
2012,06,09,07,51,11.70
2012,06,09,07,52,11.70
2012,06,09,07,53,11.80
2012,06,09,07,54,11.80
2012,06,09,07,55,11.70
2012,06,09,07,56,11.80
2012,06,09,07,57,11.80
2012,06,09,07,58,11.80
2012,06,09,07,59,11.80
2012,06,09,08,00,11.80
2012,06,09,08,01,11.80
2012,06,09,08,02,11.80
2012,06,09,08,03,11.80
2012,06,09,08,04,11.80
2012,06,09,08,05,11.90
2012,06,09,08,06,11.90
2012,06,09,08,07,11.90
2012,06,09,08,08,11.90
2012,06,09,08,09,11.90
2012,06,09,08,10,11.90
2012,06,09,08,11,11.90
2012,06,09,08,12,11.90
2012,06,09,08,13,11.90
2012,06,09,08,14,12.00
2012,06,09,08,15,12.00
2012,06,09,08,16,12.00
2012,06,09,08,17,12.00
2012,06,09,08,18,12.10
2012,06,09,08,19,12.10
2012,06,09,08,20,12.10
2012,06,09,08,21,12.10
2012,06,09,08,22,12.10
2012,06,09,08,23,12.10
2012,06,09,08,24,12.20
2012,06,09,08,25,12.20
2012,06,09,08,26,12.20
2012,06,09,08,27,12.20
2012,06,09,08,28,12.20
2012,06,09,08,29,12.20
2012,06,09,08,30,12.20
2012,06,09,08,31,12.20
2012,06,09,08,32,12.30
2012,06,09,08,33,12.30
2012,06,09,08,34,12.30
2012,06,09,08,35,12.30
2012,06,09,08,36,12.30
2012,06,09,08,37,12.40
2012,06,09,08,38,12.40
2012,06,09,08,39,12.40
2012,06,09,08,40,12.50
2012,06,09,08,41,12.50
2012,06,09,08,42,12.50
2012,06,09,08,43,12.50
2012,06,09,08,44,12.50
2012,06,09,08,45,12.50
2012,06,09,08,46,12.50
2012,06,09,08,47,12.50
2012,06,09,08,48,12.50
2012,06,09,08,49,12.50
2012,06,09,08,50,12.50
2012,06,09,08,51,12.50
2012,06,09,08,52,12.60
2012,06,09,08,53,12.60
2012,06,09,08,54,12.60
2012,06,09,08,55,12.60
2012,06,09,08,56,12.60
2012,06,09,08,57,12.60
2012,06,09,08,58,12.60
2012,06,09,08,59,12.60
2012,06,09,09,00,12.60
2012,06,09,09,01,12.70
2012,06,09,09,02,12.70
2012,06,09,09,03,12.70
2012,06,09,09,04,12.70
2012,06,09,09,05,12.70
2012,06,09,09,06,12.70
2012,06,09,09,07,12.80
2012,06,09,09,08,12.80
2012,06,09,09,09,12.80
2012,06,09,09,10,12.80
2012,06,09,09,11,12.90
2012,06,09,09,12,12.90
2012,06,09,09,13,12.90
2012,06,09,09,14,12.90
2012,06,09,09,15,12.90
2012,06,09,09,16,12.90
2012,06,09,09,17,12.90
2012,06,09,09,18,12.90
2012,06,09,09,19,12.90
2012,06,09,09,20,12.90
2012,06,09,09,21,12.90
2012,06,09,09,22,12.90
2012,06,09,09,23,12.90
2012,06,09,09,24,12.90
2012,06,09,09,25,12.90
2012,06,09,09,26,12.90
2012,06,09,09,27,12.90
2012,06,09,09,28,12.90
2012,06,09,09,29,13.00
2012,06,09,09,30,13.00
2012,06,09,09,31,13.00
2012,06,09,09,32,13.00
2012,06,09,09,33,13.10
2012,06,09,09,34,13.10
2012,06,09,09,35,13.20
2012,06,09,09,36,13.20
2012,06,09,09,37,13.20
2012,06,09,09,38,13.30
2012,06,09,09,39,13.30
2012,06,09,09,40,13.30
2012,06,09,09,41,13.30
2012,06,09,09,42,13.30
2012,06,09,09,43,13.20
2012,06,09,09,44,13.20
2012,06,09,09,45,13.20
2012,06,09,09,46,13.20
2012,06,09,09,47,13.20
2012,06,09,09,48,13.30
2012,06,09,09,49,13.30
2012,06,09,09,50,13.40
2012,06,09,09,51,13.50
2012,06,09,09,52,13.50
2012,06,09,09,53,13.50
2012,06,09,09,54,13.40
2012,06,09,09,55,13.50
2012,06,09,09,56,13.50
2012,06,09,09,57,13.60
2012,06,09,09,58,13.60
2012,06,09,09,59,13.60
2012,06,09,10,00,13.60
2012,06,09,10,01,13.60
2012,06,09,10,02,13.60
2012,06,09,10,03,13.60
2012,06,09,10,04,13.60
2012,06,09,10,05,13.50
2012,06,09,10,06,13.50
2012,06,09,10,07,13.40
2012,06,09,10,08,13.40
2012,06,09,10,09,13.40
2012,06,09,10,10,13.50
2012,06,09,10,11,13.60
2012,06,09,10,12,13.60
2012,06,09,10,13,13.70
2012,06,09,10,14,13.80
2012,06,09,10,15,13.80
2012,06,09,10,16,13.90
2012,06,09,10,17,13.90
2012,06,09,10,18,13.80
2012,06,09,10,19,13.80
2012,06,09,10,20,13.80
2012,06,09,10,21,13.80
2012,06,09,10,22,13.80
2012,06,09,10,23,13.70
2012,06,09,10,24,13.70
2012,06,09,10,25,13.70
2012,06,09,10,26,13.60
2012,06,09,10,27,13.60
2012,06,09,10,28,13.60
2012,06,09,10,29,13.60
2012,06,09,10,30,13.60
2012,06,09,10,31,13.70
2012,06,09,10,32,13.80
2012,06,09,10,33,13.80
2012,06,09,10,34,13.80
2012,06,09,10,35,13.80
2012,06,09,10,36,13.90
2012,06,09,10,37,13.90
2012,06,09,10,38,13.90
2012,06,09,10,39,13.90
2012,06,09,10,40,13.90
2012,06,09,10,41,13.90
2012,06,09,10,42,13.90
2012,06,09,10,43,13.90
2012,06,09,10,44,13.90
2012,06,09,10,45,13.90
2012,06,09,10,46,13.90
2012,06,09,10,47,14.00
2012,06,09,10,48,14.00
2012,06,09,10,49,14.10
2012,06,09,10,50,14.10
2012,06,09,10,51,14.10
2012,06,09,10,52,14.20
2012,06,09,10,53,14.20
2012,06,09,10,54,14.20
2012,06,09,10,55,14.10
2012,06,09,10,56,14.10
2012,06,09,10,57,14.00
2012,06,09,10,58,14.00
2012,06,09,10,59,14.00
2012,06,09,11,00,14.00
2012,06,09,11,01,14.00
2012,06,09,11,02,13.90
2012,06,09,11,03,13.90
2012,06,09,11,04,13.90
2012,06,09,11,05,13.90
2012,06,09,11,06,13.90
2012,06,09,11,07,13.90
2012,06,09,11,08,14.00
2012,06,09,11,09,14.00
2012,06,09,11,10,14.00
2012,06,09,11,11,14.00
2012,06,09,11,12,14.00
2012,06,09,11,13,14.00
2012,06,09,11,14,14.00
2012,06,09,11,15,14.10
2012,06,09,11,16,14.00
2012,06,09,11,17,14.00
2012,06,09,11,18,14.00
2012,06,09,11,19,14.00
2012,06,09,11,20,14.00
2012,06,09,11,21,14.00
2012,06,09,11,22,14.00
2012,06,09,11,23,14.00
2012,06,09,11,24,14.00
2012,06,09,11,25,14.10
2012,06,09,11,26,14.10
2012,06,09,11,27,14.20
2012,06,09,11,28,14.20
2012,06,09,11,29,14.20
2012,06,09,11,30,14.30
2012,06,09,11,31,14.30
2012,06,09,11,32,14.30
2012,06,09,11,33,14.20
2012,06,09,11,34,14.20
2012,06,09,11,35,14.20
2012,06,09,11,36,14.20
2012,06,09,11,37,14.20
2012,06,09,11,38,14.20
2012,06,09,11,39,14.20
2012,06,09,11,40,14.30
2012,06,09,11,41,14.30
2012,06,09,11,42,14.30
2012,06,09,11,43,14.30
2012,06,09,11,44,14.30
2012,06,09,11,45,14.30
2012,06,09,11,46,14.30
2012,06,09,11,47,14.30
2012,06,09,11,48,14.30
2012,06,09,11,49,14.40
2012,06,09,11,50,14.40
2012,06,09,11,51,14.40
2012,06,09,11,52,14.50
2012,06,09,11,53,14.50
2012,06,09,11,54,14.60
2012,06,09,11,55,14.70
2012,06,09,11,56,14.70
2012,06,09,11,57,14.70
2012,06,09,11,58,14.70
2012,06,09,11,59,14.60
2012,06,09,12,00,14.50
2012,06,09,12,01,14.50
2012,06,09,12,02,14.40
2012,06,09,12,03,14.40
2012,06,09,12,04,14.50
2012,06,09,12,05,14.50
2012,06,09,12,06,14.40
2012,06,09,12,07,14.40
2012,06,09,12,08,14.40
2012,06,09,12,09,14.30
2012,06,09,12,10,14.30
2012,06,09,12,11,14.40
2012,06,09,12,12,14.50
2012,06,09,12,13,14.60
2012,06,09,12,14,14.60
2012,06,09,12,15,14.70
2012,06,09,12,16,14.70
2012,06,09,12,17,14.80
2012,06,09,12,18,14.80
2012,06,09,12,19,14.90
2012,06,09,12,20,15.00
2012,06,09,12,21,15.00
2012,06,09,12,22,15.10
2012,06,09,12,23,15.20
2012,06,09,12,24,15.30
2012,06,09,12,25,15.40
2012,06,09,12,26,15.40
2012,06,09,12,27,15.50
2012,06,09,12,28,15.60
2012,06,09,12,29,15.60
2012,06,09,12,30,15.60
2012,06,09,12,31,15.60
2012,06,09,12,32,15.60
2012,06,09,12,33,15.50
2012,06,09,12,34,15.50
2012,06,09,12,35,15.40
2012,06,09,12,36,15.40
2012,06,09,12,37,15.50
2012,06,09,12,38,15.50
2012,06,09,12,39,15.50
2012,06,09,12,40,15.50
2012,06,09,12,41,15.50
2012,06,09,12,42,15.50
2012,06,09,12,43,15.50
2012,06,09,12,44,15.60
2012,06,09,12,45,15.60
2012,06,09,12,46,15.50
2012,06,09,12,47,15.50
2012,06,09,12,48,15.40
2012,06,09,12,49,15.40
2012,06,09,12,50,15.30
2012,06,09,12,51,15.30
2012,06,09,12,52,15.30
2012,06,09,12,53,15.30
2012,06,09,12,54,15.30
2012,06,09,12,55,15.30
2012,06,09,12,56,15.20
2012,06,09,12,57,15.20
2012,06,09,12,58,15.20
2012,06,09,12,59,15.20
2012,06,09,13,00,15.10
2012,06,09,13,01,15.10
2012,06,09,13,02,15.20
2012,06,09,13,03,15.20
2012,06,09,13,04,15.30
2012,06,09,13,05,15.40
2012,06,09,13,06,15.50
2012,06,09,13,07,15.50
2012,06,09,13,08,15.50
2012,06,09,13,09,15.60
2012,06,09,13,10,15.50
2012,06,09,13,11,15.40
2012,06,09,13,12,15.30
2012,06,09,13,13,15.20
2012,06,09,13,14,15.20
2012,06,09,13,15,15.10
2012,06,09,13,16,15.20
2012,06,09,13,17,15.30
2012,06,09,13,18,15.40
2012,06,09,13,19,15.50
2012,06,09,13,20,15.60
2012,06,09,13,21,15.60
2012,06,09,13,22,15.70
2012,06,09,13,23,15.70
2012,06,09,13,24,15.80
2012,06,09,13,25,15.80
2012,06,09,13,26,15.80
2012,06,09,13,27,15.80
2012,06,09,13,28,15.80
2012,06,09,13,29,15.70
2012,06,09,13,30,15.70
2012,06,09,13,31,15.70
2012,06,09,13,32,15.70
2012,06,09,13,33,15.70
2012,06,09,13,34,15.80
2012,06,09,13,35,15.80
2012,06,09,13,36,15.80
2012,06,09,13,37,15.80
2012,06,09,13,38,15.80
2012,06,09,13,39,15.90
2012,06,09,13,40,16.00
2012,06,09,13,41,16.10
2012,06,09,13,42,16.10
2012,06,09,13,43,16.20
2012,06,09,13,44,16.20
2012,06,09,13,45,16.20
2012,06,09,13,46,16.20
2012,06,09,13,47,16.10
2012,06,09,13,48,16.10
2012,06,09,13,49,16.00
2012,06,09,13,50,16.00
2012,06,09,13,51,16.00
2012,06,09,13,52,16.10
2012,06,09,13,53,16.10
2012,06,09,13,54,16.10
2012,06,09,13,55,16.20
2012,06,09,13,56,16.20
2012,06,09,13,57,16.20
2012,06,09,13,58,16.20
2012,06,09,13,59,16.30
2012,06,09,14,00,16.40
2012,06,09,14,01,16.40
2012,06,09,14,02,16.40
2012,06,09,14,03,16.40
2012,06,09,14,04,16.40
2012,06,09,14,05,16.40
2012,06,09,14,06,16.30
2012,06,09,14,07,16.30
2012,06,09,14,08,16.20
2012,06,09,14,09,16.20
2012,06,09,14,10,16.20
2012,06,09,14,11,16.10
2012,06,09,14,12,16.10
2012,06,09,14,13,16.00
2012,06,09,14,14,15.90
2012,06,09,14,15,15.90
2012,06,09,14,16,15.80
2012,06,09,14,17,15.80
2012,06,09,14,18,15.80
2012,06,09,14,19,15.80
2012,06,09,14,20,15.90
2012,06,09,14,21,16.00
2012,06,09,14,22,16.10
2012,06,09,14,23,16.10
2012,06,09,14,24,16.10
2012,06,09,14,25,16.10
2012,06,09,14,26,16.10
2012,06,09,14,27,16.10
2012,06,09,14,28,16.10
2012,06,09,14,29,16.10
2012,06,09,14,30,16.10
2012,06,09,14,31,16.10
2012,06,09,14,32,16.20
2012,06,09,14,33,16.20
2012,06,09,14,34,16.30
2012,06,09,14,35,16.30
2012,06,09,14,36,16.30
2012,06,09,14,37,16.20
2012,06,09,14,38,16.20
2012,06,09,14,39,16.10
2012,06,09,14,40,16.00
2012,06,09,14,41,16.00
2012,06,09,14,42,16.10
2012,06,09,14,43,16.20
2012,06,09,14,44,16.30
2012,06,09,14,45,16.50
2012,06,09,14,46,16.60
2012,06,09,14,47,16.80
2012,06,09,14,48,16.90
2012,06,09,14,49,17.00
2012,06,09,14,50,17.10
2012,06,09,14,51,17.20
2012,06,09,14,52,17.30
2012,06,09,14,53,17.40
2012,06,09,14,54,17.40
2012,06,09,14,55,17.50
2012,06,09,14,56,17.50
2012,06,09,14,57,17.50
2012,06,09,14,58,17.40
2012,06,09,14,59,17.20
2012,06,09,15,00,17.20
2012,06,09,15,01,17.20
2012,06,09,15,02,17.10
2012,06,09,15,03,17.10
2012,06,09,15,04,17.20
2012,06,09,15,05,17.20
2012,06,09,15,06,17.30
2012,06,09,15,07,17.30
2012,06,09,15,08,17.40
2012,06,09,15,09,17.40
2012,06,09,15,10,17.50
2012,06,09,15,11,17.60
2012,06,09,15,12,17.60
2012,06,09,15,13,17.60
2012,06,09,15,14,17.60
2012,06,09,15,15,17.50
2012,06,09,15,16,17.50
2012,06,09,15,17,17.60
2012,06,09,15,18,17.60
2012,06,09,15,19,17.70
2012,06,09,15,20,17.70
2012,06,09,15,21,17.70
2012,06,09,15,22,17.70
2012,06,09,15,23,17.70
2012,06,09,15,24,17.60
2012,06,09,15,25,17.60
2012,06,09,15,26,17.70
2012,06,09,15,27,17.70
2012,06,09,15,28,17.70
2012,06,09,15,29,17.80
2012,06,09,15,30,17.80
2012,06,09,15,31,17.80
2012,06,09,15,32,17.80
2012,06,09,15,33,17.90
2012,06,09,15,34,17.90
2012,06,09,15,35,17.80
2012,06,09,15,36,17.80
2012,06,09,15,37,17.90
2012,06,09,15,38,17.90
2012,06,09,15,39,17.80
2012,06,09,15,40,17.80
2012,06,09,15,41,17.70
2012,06,09,15,42,17.70
2012,06,09,15,43,17.70
2012,06,09,15,44,17.70
2012,06,09,15,45,17.60
2012,06,09,15,46,17.60
2012,06,09,15,47,17.60
2012,06,09,15,48,17.60
2012,06,09,15,49,17.60
2012,06,09,15,50,17.70
2012,06,09,15,51,17.80
2012,06,09,15,52,17.80
2012,06,09,15,53,17.80
2012,06,09,15,54,17.80
2012,06,09,15,55,17.80
2012,06,09,15,56,17.80
2012,06,09,15,57,17.90
2012,06,09,15,58,17.90
2012,06,09,15,59,17.90
2012,06,09,16,00,18.00
2012,06,09,16,01,18.10
2012,06,09,16,02,18.20
2012,06,09,16,03,18.20
2012,06,09,16,04,18.20
2012,06,09,16,05,18.10
2012,06,09,16,06,18.10
2012,06,09,16,07,18.10
2012,06,09,16,08,18.10
2012,06,09,16,09,18.00
2012,06,09,16,10,17.80
2012,06,09,16,11,17.60
2012,06,09,16,12,17.50
2012,06,09,16,13,17.50
2012,06,09,16,14,17.60
2012,06,09,16,15,17.70
2012,06,09,16,16,17.70
2012,06,09,16,17,17.80
2012,06,09,16,18,17.80
2012,06,09,16,19,17.90
2012,06,09,16,20,18.00
2012,06,09,16,21,18.00
2012,06,09,16,22,18.00
2012,06,09,16,23,17.90
2012,06,09,16,24,17.80
2012,06,09,16,25,17.80
2012,06,09,16,26,17.80
2012,06,09,16,27,17.80
2012,06,09,16,28,17.90
2012,06,09,16,29,18.00
2012,06,09,16,30,18.00
2012,06,09,16,31,17.90
2012,06,09,16,32,17.90
2012,06,09,16,33,17.80
2012,06,09,16,34,17.80
2012,06,09,16,35,17.70
2012,06,09,16,36,17.60
2012,06,09,16,37,17.60
2012,06,09,16,38,17.60
2012,06,09,16,39,17.60
2012,06,09,16,40,17.60
2012,06,09,16,41,17.50
2012,06,09,16,42,17.50
2012,06,09,16,43,17.60
2012,06,09,16,44,17.60
2012,06,09,16,45,17.60
2012,06,09,16,46,17.50
2012,06,09,16,47,17.50
2012,06,09,16,48,17.40
2012,06,09,16,49,17.30
2012,06,09,16,50,17.30
2012,06,09,16,51,17.20
2012,06,09,16,52,17.10
2012,06,09,16,53,17.10
2012,06,09,16,54,17.00
2012,06,09,16,55,17.00
2012,06,09,16,56,17.10
2012,06,09,16,57,17.10
2012,06,09,16,58,17.20
2012,06,09,16,59,17.10
2012,06,09,17,00,17.10
2012,06,09,17,01,17.10
2012,06,09,17,02,17.10
2012,06,09,17,03,17.10
2012,06,09,17,04,17.20
2012,06,09,17,05,17.20
2012,06,09,17,06,17.20
2012,06,09,17,07,17.20
2012,06,09,17,08,17.20
2012,06,09,17,09,17.10
2012,06,09,17,10,17.10
2012,06,09,17,11,17.10
2012,06,09,17,12,17.10
2012,06,09,17,13,17.10
2012,06,09,17,14,17.10
2012,06,09,17,15,17.20
2012,06,09,17,16,17.20
2012,06,09,17,17,17.20
2012,06,09,17,18,17.20
2012,06,09,17,19,17.20
2012,06,09,17,20,17.20
2012,06,09,17,21,17.30
2012,06,09,17,22,17.30
2012,06,09,17,23,17.40
2012,06,09,17,24,17.40
2012,06,09,17,25,17.50
2012,06,09,17,26,17.60
2012,06,09,17,27,17.70
2012,06,09,17,28,17.70
2012,06,09,17,29,17.70
2012,06,09,17,30,17.80
2012,06,09,17,31,17.80
2012,06,09,17,32,17.90
2012,06,09,17,33,17.90